Location: Crescent
(42.8242°N, 73.7329°W)
Time: 00:49:47
(UTC+00:00)

Tiros 1 - Pass Details

Date: 17 February 2026
Orbit: 618 x 649 km, 48.4° (Epoch: 10 March)

Event Time Altitude Azimuth Distance (km) Brightness Sun altitude
Rises 19:38:17 0° 294° (WNW) 2,890 10.7 25.6°
Reaches altitude 10° 19:40:40 10° 288° (WNW) 1,981 10.0 25.3°
Maximum altitude 19:45:00 45° 216° (SW) 843 9.4 24.8°
Drops below altitude 10° 19:49:19 10° 144° (SE) 1,974 9.8 24.2°
Sets 19:51:41 0° 138° (SE) 2,879 10.5 23.9°
